Location: Brown Observing Site
(43.4354°N, 116.3366°W)
Time: 01:41:20
(UTC-06:00)

Envisat - Pass Details

Date: 04 October 2020
Orbit: 764 x 766 km, 98.1° (Epoch: 23 October)

Event Time Altitude Azimuth Distance (km) Brightness Sun altitude
Rises 06:55:26 0° 24° (NNE) 3,238 6.6 -10.2°
Reaches altitude 10° 06:58:07 10° 37° (NE) 2,307 6.1 -9.7°
Maximum altitude 07:02:21 26° 94° (E) 1,467 5.5 -8.9°
Drops below altitude 10° 07:06:33 10° 151° (SSE) 2,292 5.9 -8.2°
Sets 07:09:11 0° 163° (SSE) 3,213 6.4 -7.7°
